Location: Zagreb
(45.8000°N, 16.0000°E)
Time: 19:55:36
(UTC+02:00)

A-11 Canister half - Pass Details

Date: 14 August 2022
Orbit: 1524 x 1684 km, 47.3° (Epoch: 05 October)

Event Time Altitude Azimuth Distance (km) Brightness Sun altitude
Rises 03:27:17 0° 184° (S) 4,864 - -21.3°
Exits shadow 03:31:14 - 170° (S) 3,956 10.8 -20.9°
Reaches altitude 10° 03:31:30 10° 169° (SSE) 3,902 10.8 -20.9°
Maximum altitude 03:38:09 20° 126° (SE) 3,184 10.7 -20.1°
Drops below altitude 10° 03:44:51 10° 84° (E) 3,950 11.8 -19.3°
Sets 03:49:06 0° 69° (ENE) 4,941 12.8 -18.8°
